Tracking 19219 objects as of 20-Jul-2018
HD Live streaming from Space Station
objects crossing your sky now

FENGYUN 1C DEB


10-day predictions


NORAD ID: 31335
Int'l Code: 1999-025BQP
Launch date: May 10, 1999
Source: People's Republic of China (PRC)
Launch site: Taiyaun Space Center, China (TSC)

Note: This is SATELLITE DEBRIS
aabbcc
Your satellite tracking list
Your tracking list is empty




NASA's NSSDC Master Catalog

Two Line Element Set (TLE):
1 31335U 99025BQP 18200.27920100  .00009417  00000-0  62711-3 0  9993
2 31335  98.7862 135.8947 0040860  73.0252 287.5444 15.06692255601799
Source of the keplerian elements: AFSPC